Location: Treviso
(45.6669°N, 12.2430°E)
Time: 11:24:17
(UTC+01:00)

ISS - Pass Details

Date: 19 March 2023
Orbit: 414 x 423 km, 51.6° (Epoch: 20 March)

Event Time Altitude Azimuth Distance (km) Brightness Sun altitude
Rises 19:24:44 0° 243° (WSW) 2,351 0.9 -11.8°
Reaches altitude 10° 19:26:50 10° 244° (WSW) 1,489 -0.2 -12.1°
Maximum altitude 19:30:10 82° 331° (NNW) 425 -3.7 -12.7°
Enters shadow 19:32:44 16° 60° (ENE) 1,172 -1.9 -13.1°
